Regional Weather Roundup
Issued by NWS

Home | Current Version | Previous Version | Graphics & Text | Print | Product List | Glossary On
Versions: 1 2 3 4 5 6 7 8 9 10 11 12 13 14 15 16 17 18 19 20 21 22 23 24 25 26 27 28 29 30 31 32 33 34 35 36 37 38 39 40 41 42 43 44 45 46 47 48 49 50
382
ASUS45 KCYS 290410
RWRWY

WYOMING REGIONAL WEATHER ROUNDUP
NATIONAL WEATHER SERVICE CHEYENNE WY
1000 PM MDT THU APR 28 2016

NOTE:  "FAIR" INDICATES FEW OR NO CLOUDS BELOW 12,000 FEET
WITH NO SIGNIFICANT WEATHER AND/OR OBSTRUCTIONS TO VISIBILITY.

WYZ001-290500-
YELLOWSTONE NATIONAL PARK

CITY           SKY/WX    TMP DP  RH WIND       PRES   REMARKS
LK YELLOWSTONE   N/A     31  22  69 VRB3      29.96R
W YELLOWSTONE  NOT AVBL

$$
WYZ002>013-054>058-071-098>099-290500-
NORTHERN WYOMING

CITY           SKY/WX    TMP DP  RH WIND       PRES   REMARKS
JACKSON        CLOUDY    39  28  65 N5        29.92R
CODY           CLOUDY    34  30  86 NE7       30.06R WCI  28
GREYBULL       CLOUDY    44  28  53 CALM      30.05R
WORLAND        CLOUDY    41  34  76 SE9       30.05R
SHERIDAN       CLOUDY    37  34  89 CALM      30.10R
BUFFALO          N/A    N/A N/A N/A MISG      30.10R
GILLETTE       CLOUDY    34  34 100 CALM      30.10R
HULETT         CLOUDY    36  32  87 E6        30.12S WCI  31
NEWCASTLE      CLOUDY    36  34  93 S7        30.12R WCI  30

$$
WYZ014>020-022>026-101>103-290500-
CENTRAL WYOMING

CITY           SKY/WX    TMP DP  RH WIND       PRES   REMARKS
BIG PINEY      CLOUDY    33  26  75 SW12      29.97R WCI  24
PINEDALE       MOCLDY    34  27  75 W7        29.97R WCI  28
DUBOIS         FLURRIES  28  27  93 SE15G22   30.00R WCI  17
LANDER         CLOUDY    34  27  75 E5        30.04R WCI  30
RIVERTON       CLOUDY    35  28  75 E8        30.05R WCI  29
CASPER         FLURRIES  32  27  81 E8        30.06R WCI  25
DOUGLAS        LGT SNOW  33  31  92 CALM      30.09S FOG

$$
WYZ021-027>030-104>119-290500-
SOUTHERN WYOMING

CITY           SKY/WX    TMP DP  RH WIND       PRES   REMARKS
EVANSTON       FLURRIES  32  28  85 NE12      29.92R WCI  23
FORT BRIDGER   LGT SNOW  32  32 100 E13       29.97R WCI  22
ROCK SPRINGS   CLOUDY    32  26  78 NE18      29.96R WCI  20
DIXON          CLOUDY    38  33  81 N3        29.95R
RAWLINS        CLOUDY    31  27  85 NE22G28   29.97R WCI  18
SARATOGA       MOCLDY    34  32  93 CALM      29.96R
LARAMIE        MOCLDY    30  26  85 SE16      30.00R WCI  19
CHEYENNE       CLOUDY    34  32  92 S6        30.03F WCI  29
TORRINGTON     CLOUDY    36  35  96 E8        30.09S WCI  30
PINE BLUFFS    CLOUDY    34  34 100 E8        30.07F WCI  27

$$




USA.gov is the U.S. government's official web portal to all federal, state and local government web resources and services.